{"data":{"norad_id":39487,"epoch":"2026-05-25T04:24:35.930016Z","epoch_age_seconds":62192,"freshness":"FRESH","line1":"1 39487U 13077A   26145.18374919 -.00000282  00000+0  00000+0 0  9990","line2":"2 39487   0.0176 292.3731 0001222  36.0257 120.5650  1.00272244 46139","mean_motion":1.00272244,"eccentricity":0.0001222,"inclination_deg":0.0176,"raan_deg":292.3731,"arg_perigee_deg":36.0257,"mean_anomaly_deg":120.565,"bstar":0,"rev_number":4613,"period_min":1436.0903302413,"perigee_km":35781.313772798,"apogee_km":35791.618801841,"semimajor_km":42164.603287319,"source":"CELESTRAK","updated_at":"2026-05-25T13:38:13.947415Z"}}